AAL144 KLAX-KLAS

Flight info

Callsign AAL144
Flight time N/A
Altitude 29000
Route ORCKA5 MISEN RNDRZ4
Aircraft B77W/H-SDE1E2E3FGHIJ2J3J4J5M1RWXY/LB1D1

Departure

Time 2026-04-26 03:37
Airport Los Angeles International Airport (KLAX)

Arrival

Time N/A
Airport Harry Reid International Airport (KLAS)
Time Latitude Longitude Altitude Speed Heading
2026-04-26 03:16 33.94020 -118.41076 101 ft 0 kts 83°
2026-04-26 03:23 33.94019 -118.41086 100 ft 2 kts 84°
2026-04-26 03:23 33.94018 -118.41105 99 ft 2 kts 88°
2026-04-26 03:24 33.94018 -118.41125 96 ft 2 kts 93°
2026-04-26 03:24 33.94020 -118.41145 97 ft 2 kts 101°
2026-04-26 03:24 33.94024 -118.41164 98 ft 2 kts 117°
2026-04-26 03:24 33.94034 -118.41180 99 ft 2 kts 146°
2026-04-26 03:25 33.94048 -118.41188 98 ft 2 kts 169°
2026-04-26 03:25 33.94054 -118.41189 98 ft 0 kts 172°
2026-04-26 03:26 33.94004 -118.41181 99 ft 13 kts 172°
2026-04-26 03:26 33.93913 -118.41166 98 ft 13 kts 172°
2026-04-26 03:26 33.93823 -118.41152 99 ft 13 kts 173°
2026-04-26 03:27 33.93772 -118.41074 100 ft 13 kts 90°
2026-04-26 03:27 33.93780 -118.40962 98 ft 13 kts 84°
2026-04-26 03:27 33.93790 -118.40851 99 ft 13 kts 84°
2026-04-26 03:27 33.93802 -118.40740 101 ft 13 kts 82°
2026-04-26 03:28 33.93814 -118.40629 99 ft 13 kts 82°
2026-04-26 03:28 33.93826 -118.40518 102 ft 13 kts 82°
2026-04-26 03:28 33.93839 -118.40399 102 ft 21 kts 82°
2026-04-26 03:28 33.93859 -118.40186 101 ft 26 kts 83°
2026-04-26 03:29 33.93882 -118.39969 104 ft 26 kts 83°
2026-04-26 03:29 33.93904 -118.39751 100 ft 26 kts 83°
2026-04-26 03:29 33.93926 -118.39533 101 ft 26 kts 83°
2026-04-26 03:29 33.93949 -118.39315 98 ft 25 kts 83°
2026-04-26 03:30 33.93967 -118.39143 101 ft 21 kts 83°
2026-04-26 03:30 33.93985 -118.38971 102 ft 21 kts 83°
2026-04-26 03:30 33.94002 -118.38799 100 ft 21 kts 83°
2026-04-26 03:30 33.94020 -118.38627 100 ft 21 kts 83°
2026-04-26 03:31 33.94035 -118.38485 103 ft 0 kts 83°
2026-04-26 03:31 33.94035 -118.38480 103 ft 1 kts 83°
2026-04-26 03:31 33.94036 -118.38468 103 ft 2 kts 83°
2026-04-26 03:31 33.94038 -118.38448 103 ft 3 kts 83°
2026-04-26 03:32 33.94042 -118.38416 102 ft 9 kts 83°
2026-04-26 03:32 33.94059 -118.38245 100 ft 24 kts 83°
2026-04-26 03:32 33.94075 -118.38074 98 ft 13 kts 91°
2026-04-26 03:32 33.94014 -118.38008 99 ft 13 kts 189°
2026-04-26 03:33 33.93979 -118.38072 98 ft 0 kts 264°
2026-04-26 03:36 33.93979 -118.38073 98 ft 6 kts 264°
2026-04-26 03:37 33.93935 -118.38502 105 ft 96 kts 263°
2026-04-26 03:37 33.93818 -118.39618 138 ft 165 kts 261°
2026-04-26 03:37 33.93648 -118.41129 518 ft 197 kts 261°
2026-04-26 03:37 33.93460 -118.42782 1410 ft 202 kts 263°
2026-04-26 03:38 33.93292 -118.44561 1944 ft 227 kts 263°
2026-04-26 03:38 33.93096 -118.46467 2806 ft 233 kts 259°
2026-04-26 03:38 33.92612 -118.48364 3634 ft 242 kts 251°
2026-04-26 03:38 33.92003 -118.50290 4577 ft 248 kts 250°
2026-04-26 03:39 33.91353 -118.52244 5491 ft 254 kts 250°
2026-04-26 03:39 33.90690 -118.54174 6581 ft 254 kts 248°
2026-04-26 03:39 33.89988 -118.56143 7514 ft 257 kts 248°
2026-04-26 03:39 33.89253 -118.58104 8501 ft 256 kts 243°
2026-04-26 03:40 33.88081 -118.59745 9313 ft 266 kts 216°
2026-04-26 03:40 33.86348 -118.60585 10257 ft 275 kts 194°
2026-04-26 03:40 33.84357 -118.60644 10758 ft 304 kts 176°
2026-04-26 03:40 33.82239 -118.59772 10982 ft 344 kts 154°
2026-04-26 03:41 33.80352 -118.57840 11593 ft 369 kts 133°
2026-04-26 03:41 33.79006 -118.55143 12495 ft 385 kts 115°
2026-04-26 03:41 33.78362 -118.51979 13023 ft 395 kts 96°
2026-04-26 03:41 33.78638 -118.48682 12995 ft 400 kts 72°
2026-04-26 03:42 33.79954 -118.45775 13003 ft 397 kts 47°
2026-04-26 03:42 33.82102 -118.43766 13033 ft 390 kts 21°
2026-04-26 03:42 33.84720 -118.43117 13848 ft 384 kts 354°
2026-04-26 03:42 33.87348 -118.43475 14781 ft 381 kts 347°
2026-04-26 03:43 33.90025 -118.43721 15657 ft 391 kts 358°
2026-04-26 03:43 33.92721 -118.42913 16499 ft 412 kts 22°
2026-04-26 03:43 33.95030 -118.40811 17530 ft 426 kts 46°
2026-04-26 03:43 33.96705 -118.37832 18521 ft 434 kts 59°
2026-04-26 03:44 33.98259 -118.34645 19016 ft 444 kts 57°
2026-04-26 03:44 33.99933 -118.31509 19011 ft 446 kts 55°
2026-04-26 03:44 34.01679 -118.28422 19065 ft 448 kts 54°
2026-04-26 03:44 34.03457 -118.25302 19824 ft 454 kts 54°
2026-04-26 03:45 34.05243 -118.22154 20822 ft 456 kts 54°
2026-04-26 03:45 34.07041 -118.18980 21701 ft 461 kts 54°
2026-04-26 03:45 34.08864 -118.15759 22465 ft 469 kts 54°
2026-04-26 03:45 34.10695 -118.12520 23195 ft 477 kts 54°
2026-04-26 03:46 34.12580 -118.09185 23886 ft 484 kts 55°
2026-04-26 03:46 34.14486 -118.05809 24513 ft 490 kts 56°
2026-04-26 03:46 34.16423 -118.02375 25065 ft 499 kts 56°
2026-04-26 03:47 34.20374 -117.95356 26405 ft 509 kts 56°
2026-04-26 03:47 34.22359 -117.91827 27287 ft 508 kts 56°
2026-04-26 03:47 34.24341 -117.88302 28175 ft 506 kts 56°
2026-04-26 03:47 34.26324 -117.84772 28911 ft 508 kts 56°
2026-04-26 03:48 34.28302 -117.81242 28967 ft 507 kts 56°
2026-04-26 03:48 34.30302 -117.77666 28939 ft 523 kts 56°
2026-04-26 03:48 34.32380 -117.73966 28974 ft 539 kts 55°
2026-04-26 03:48 34.34508 -117.70156 28936 ft 551 kts 56°
2026-04-26 03:49 34.36666 -117.66338 28902 ft 552 kts 55°
2026-04-26 03:49 34.41188 -117.58763 28890 ft 556 kts 53°
2026-04-26 03:50 34.45753 -117.51224 28913 ft 553 kts 53°
2026-04-26 03:50 34.50259 -117.43706 28900 ft 548 kts 54°
2026-04-26 03:51 34.54703 -117.36220 28917 ft 546 kts 54°
2026-04-26 03:51 34.59134 -117.28728 28923 ft 546 kts 54°
2026-04-26 03:52 34.63571 -117.21218 28893 ft 548 kts 54°
2026-04-26 03:52 34.68009 -117.13695 28811 ft 547 kts 55°
2026-04-26 03:53 34.72429 -117.06187 28813 ft 546 kts 55°
2026-04-26 03:53 34.76837 -116.98682 28834 ft 545 kts 55°
2026-04-26 03:54 34.81232 -116.91183 28839 ft 545 kts 55°
2026-04-26 03:54 34.85615 -116.83690 28836 ft 539 kts 56°
2026-04-26 03:55 34.89891 -116.76364 28845 ft 526 kts 56°
2026-04-26 03:55 34.93405 -116.70308 28848 ft 527 kts 56°
2026-04-26 03:56 34.97556 -116.62948 28835 ft 527 kts 57°
2026-04-26 03:56 35.01667 -116.55608 28796 ft 518 kts 57°
2026-04-26 03:57 35.05735 -116.48363 28770 ft 517 kts 57°
2026-04-26 03:57 35.09801 -116.41121 28720 ft 514 kts 56°
2026-04-26 03:57 35.11961 -116.37693 28382 ft 506 kts 49°
2026-04-26 03:58 35.14370 -116.34583 27709 ft 503 kts 45°
2026-04-26 03:58 35.16884 -116.31592 26855 ft 505 kts 44°
2026-04-26 03:58 35.19381 -116.28564 26065 ft 505 kts 46°
2026-04-26 03:58 35.21808 -116.25477 25465 ft 501 kts 47°
2026-04-26 03:59 35.24163 -116.22362 24991 ft 492 kts 49°
2026-04-26 03:59 35.26357 -116.19329 24605 ft 464 kts 49°
2026-04-26 03:59 35.28448 -116.16410 23927 ft 450 kts 49°
2026-04-26 03:59 35.30501 -116.13568 22987 ft 443 kts 49°
2026-04-26 04:00 35.32511 -116.10808 21987 ft 437 kts 49°
2026-04-26 04:00 35.34542 -116.08022 21017 ft 430 kts 49°
2026-04-26 04:00 35.36531 -116.05287 20237 ft 433 kts 49°
2026-04-26 04:00 35.38531 -116.02535 19973 ft 431 kts 49°
2026-04-26 04:01 35.40512 -115.99807 19878 ft 424 kts 49°
2026-04-26 04:01 35.42460 -115.97124 19717 ft 419 kts 49°
2026-04-26 04:01 35.44373 -115.94488 19570 ft 404 kts 49°
2026-04-26 04:01 35.46181 -115.92001 19327 ft 389 kts 49°
2026-04-26 04:02 35.47957 -115.89557 19001 ft 379 kts 49°
2026-04-26 04:02 35.49693 -115.87163 18604 ft 373 kts 49°
2026-04-26 04:02 35.51409 -115.84791 18104 ft 370 kts 49°
2026-04-26 04:02 35.53114 -115.82434 17546 ft 368 kts 49°
2026-04-26 04:03 35.54806 -115.80091 17020 ft 365 kts 49°
2026-04-26 04:03 35.56480 -115.77772 16533 ft 361 kts 49°
2026-04-26 04:03 35.58145 -115.75464 16081 ft 364 kts 49°
2026-04-26 04:03 35.59836 -115.73129 16014 ft 366 kts 49°
2026-04-26 04:04 35.61543 -115.70818 16012 ft 366 kts 49°
2026-04-26 04:04 35.63263 -115.68506 16014 ft 366 kts 49°
2026-04-26 04:04 35.64980 -115.66198 16009 ft 367 kts 49°
2026-04-26 04:04 35.66700 -115.63878 15975 ft 367 kts 49°
2026-04-26 04:05 35.68407 -115.61582 15762 ft 358 kts 50°
2026-04-26 04:05 35.70068 -115.59328 15344 ft 354 kts 50°
2026-04-26 04:05 35.71724 -115.57077 14807 ft 354 kts 50°
2026-04-26 04:05 35.73488 -115.54981 14334 ft 352 kts 34°
2026-04-26 04:06 35.75590 -115.53468 14296 ft 352 kts 28°
2026-04-26 04:06 35.77750 -115.52028 14115 ft 353 kts 28°
2026-04-26 04:06 35.79899 -115.50580 13947 ft 351 kts 28°
2026-04-26 04:06 35.82023 -115.49119 13776 ft 349 kts 29°
2026-04-26 04:07 35.84132 -115.47652 13580 ft 347 kts 28°
2026-04-26 04:07 35.86220 -115.46191 13387 ft 344 kts 29°
2026-04-26 04:07 35.88291 -115.44739 13217 ft 342 kts 29°
2026-04-26 04:07 35.90351 -115.43293 13043 ft 340 kts 29°
2026-04-26 04:08 35.92423 -115.41842 12679 ft 345 kts 29°
2026-04-26 04:08 35.94520 -115.40381 12260 ft 347 kts 30°
2026-04-26 04:08 35.96623 -115.38915 11873 ft 347 kts 30°
2026-04-26 04:08 35.98678 -115.37449 11464 ft 342 kts 35°
2026-04-26 04:09 36.00346 -115.35436 11071 ft 333 kts 62°
2026-04-26 04:09 36.01218 -115.32874 10813 ft 317 kts 82°
2026-04-26 04:09 36.01448 -115.30248 10602 ft 301 kts 97°
2026-04-26 04:09 36.01331 -115.27712 10402 ft 292 kts 100°
2026-04-26 04:10 36.01183 -115.25230 10198 ft 286 kts 101°
2026-04-26 04:10 36.01037 -115.22805 10001 ft 281 kts 100°
2026-04-26 04:10 36.00902 -115.20420 9802 ft 276 kts 100°
2026-04-26 04:10 36.00777 -115.18074 9602 ft 271 kts 100°
2026-04-26 04:11 36.00660 -115.15781 9390 ft 265 kts 100°
2026-04-26 04:11 36.00546 -115.13534 9202 ft 259 kts 100°
2026-04-26 04:11 36.00436 -115.11343 9011 ft 253 kts 100°
2026-04-26 04:11 36.00326 -115.09198 8791 ft 248 kts 100°
2026-04-26 04:12 36.00218 -115.07091 8559 ft 243 kts 100°
2026-04-26 04:12 36.00113 -115.05028 8317 ft 237 kts 101°
2026-04-26 04:12 36.00010 -115.03025 8170 ft 233 kts 100°
2026-04-26 04:12 35.99904 -115.01006 7881 ft 239 kts 100°
2026-04-26 04:13 35.99764 -114.98974 7891 ft 237 kts 101°
2026-04-26 04:13 35.99609 -114.96934 7959 ft 241 kts 101°
2026-04-26 04:13 35.99452 -114.94855 7965 ft 244 kts 101°
2026-04-26 04:13 35.99368 -114.92777 7850 ft 244 kts 85°
2026-04-26 04:14 36.00115 -114.90901 7605 ft 250 kts 46°
2026-04-26 04:14 36.01581 -114.89748 7160 ft 253 kts 20°
2026-04-26 04:14 36.03303 -114.89311 6584 ft 254 kts 354°
2026-04-26 04:14 36.04944 -114.89972 6016 ft 248 kts 325°
2026-04-26 04:15 36.06429 -114.91055 5459 ft 249 kts 321°
2026-04-26 04:15 36.07593 -114.92538 4869 ft 232 kts 284°
2026-04-26 04:15 36.07724 -114.94320 4919 ft 198 kts 261°
2026-04-26 04:15 36.07658 -114.95969 4723 ft 186 kts 264°
2026-04-26 04:16 36.07650 -114.97535 4498 ft 184 kts 264°
2026-04-26 04:16 36.07648 -114.99107 4234 ft 180 kts 264°
2026-04-26 04:16 36.07648 -115.00625 4009 ft 175 kts 265°
2026-04-26 04:16 36.07645 -115.02080 3777 ft 162 kts 268°
2026-04-26 04:17 36.07646 -115.03402 3591 ft 148 kts 267°
2026-04-26 04:17 36.07645 -115.04626 3417 ft 140 kts 266°
2026-04-26 04:17 36.07646 -115.05812 3236 ft 137 kts 265°
2026-04-26 04:17 36.07643 -115.06991 3049 ft 137 kts 266°
2026-04-26 04:18 36.07641 -115.08139 2826 ft 130 kts 266°
2026-04-26 04:18 36.07637 -115.09283 2680 ft 139 kts 266°
2026-04-26 04:18 36.07644 -115.10465 2456 ft 133 kts 267°
2026-04-26 04:18 36.07644 -115.11593 2271 ft 130 kts 268°